Starlink 31688

operational
NORAD ID: 59386 Int'l Des: 2024-062 Owner: SPXS Country: US Constellation: starlink
LEOCIRCULAR

关于 Starlink 31688

正在加载描述...

实时位置

正在加载3D地球...

即将过境

高度历史

Altitude vs Time

uPlot chart will show altitude changes over time

两行轨道根数

1 59386U 24062N 25303.25404188 -.00001413 00000-0 -35588-4 0 9994
2 59386 53.1604 144.1888 0001152 93.2875 266.8258 15.30199059 89623
Epoch: Oct 30, 2025 • Age: 26 hours

当前状态

高度 477.1 km
速度 7.63 km/s
星下点 -6.17°S, 164.01°E
发射日期 Apr 2, 2024
运行时间 1.5 years
类型 internet

技术详情

分类 Payload
质量 730.00 kg
干质量 700.00 kg
总质量 730.00 kg
长度 0.30 m
直径 4.10 m
跨度 29.00 m
形状 Box + pan
制造商 SPXS
平台类型 Starlink V2M
阶段状态 In Orbit
所有者/国家 SPXS/US

大型星座

Loading constellations...